Location: Brede
(50.9167°N, 0.6000°E)
Time: 20:33:55
(UTC+00:00)

Vanguard 1 Rocket - Pass Details

Date: 26 November 2020
Orbit: 655 x 4221 km, 34.3° (Epoch: 17 January)

Event Time Altitude Azimuth Distance (km) Brightness Sun altitude
Exits shadow 06:36:16 - 268° (W) 7,373 11.5 -8.5°
Reaches altitude 10° 06:41:35 10° 261° (W) 6,126 11.1 -7.7°
Maximum altitude 06:54:55 29° 212° (SSW) 3,395 10.3 -5.8°
Drops below altitude 10° 07:03:03 10° 156° (SSE) 3,653 11.4 -4.7°
Sets 07:05:55 0° 144° (SE) 4,257 12.2 -4.3°
